Temp
14 14 14 14 13 13 13 13 12 11 11 11 11 10 10 10 9 9 9 9 8 8 7 7 6 6 5 5 4 3 3 1 2 2 2 3 3 3 3 3 3 3 4
13 14 13 13 13 12 13 13 12 11 11 11 10 10 10 9 9 9 9 8 8 8 7 6 6 6 5 5 4 3 3 2 2 3 3 3 3 3 3 3 3 3 4
15 15 13 12 13 12 12 12 11 11 11 10 10 10 9 9 8 8 8 8 7 7 7 6 6 6 5 5 4 4 3 3 2 2 2 3 3 3 3 3 3 3 4
14 15 14 14 13 12 12 11 11 10 10 10 10 9 9 9 8 8 8 7 7 7 6 6 6 5 5 5 4 4 3 3 2 2 2 2 3 3 3 3 4 3 3
15 13 12 11 11 11 11 10 10 9 10 10 9 9 8 8 8 7 7 7 7 7 6 6 5 5 4 4 4 3 3 3 2 2 2 2 2 2 2 2 2 2 2
12 10 11 11 10 10 9 9 9 9 9 9 8 8 8 8 7 7 7 7 6 6 6 6 5 4 4 4 3 3 3 2 2 2 2 2 2 1 1 1 2 2 1
11 11 10 10 10 9 9 8 8 8 8 8 8 7 7 7 7 7 6 6 6 6 5 5 5 4 3 3 3 3 2 2 2 1 1 1 1 1 0 0 0 0 0
9 9 9 9 9 8 8 7 7 7 7 8 7 8 6 6 6 6 6 5 5 5 5 4 4 3 3 3 2 2 2 1 1 1 1 0 0 -0 -0 -1 -1 -1 -0
8 8 8 8 8 8 7 7 6 6 6 7 7 7 6 5 6 5 5 5 5 4 4 3 3 3 2 2 2 1 1 1 1 0 0 -0 -0 -1 -1 -2 -2 -2 -2
7 7 7 7 7 7 7 7 6 6 6 6 6 5 5 5 5 5 5 4 4 4 3 3 2 2 2 1 1 1 1 1 0 -0 -1 -1 -1 -2 -2 -2 -2 -2 -3
6 6 5 5 5 5 5 6 6 5 5 5 6 4 4 4 4 4 4 4 4 3 3 3 2 1 1 1 0 0 0 -0 -0 -0 -1 -1 -1 -2 -2 -2 -3 -3 -3
6 5 5 5 5 4 4 4 4 4 5 4 3 3 4 4 3 3 3 3 3 3 3 2 2 1 1 0 0 -0 -0 -0 -1 -1 -1 -1 -2 -2 -2 -3 -3 -3 -3
5 5 5 4 4 4 4 4 4 4 3 3 3 3 3 3 3 3 2 2 2 2 2 1 1 0 0 -0 0 -0 -1 -1 -1 -1 -1 -2 -2 -3 -3 -3 -3 -3 -3
5 5 4 4 4 3 3 3 3 3 3 3 3 3 3 2 2 2 2 1 1 1 1 0 0 0 -0 0 -1 -1 -1 -1 -1 -2 -2 -2 -3 -3 -3 -3 -3 -3 -3
5 4 4 3 3 3 3 3 3 3 3 4 4 3 3 3 3 3 2 2 2 1 -0 -1 -1 -0 -1 -1 -1 -1 -2 -2 -2 -2 -3 -3 -3 -3 -4 -4 -4 -4 -5
4 3 3 3 3 3 2 2 2 2 2 2 2 2 2 2 2 2 1 0 0 -0 -1 -1 -1 -1 -2 -1 -1 -2 -2 -2 -2 -3 -4 -3 -4 -4 -4 -5 -5 -6 -6
2 2 2 2 2 2 2 1 1 1 1 0 0 0 1 0 1 1 0 -0 -1 -1 -1 -1 -1 -3 -2 -1 -2 -2 -2 -3 -3 -4 -3 -4 -4 -5 -5 -6 -6 -7 -7
2 1 1 1 1 1 0 0 0 0 0 0 -0 -0 -0 -1 -1 -1 -1 -1 -2 -3 -3 -3 -4 -4 -2 -2 -2 -2 -3 -3 -4 -3 -3 -4 -5 -5 -6 -6 -7 -8 -8
0 0 -0 -1 -1 -1 -1 -1 -1 -1 -1 -2 -3 -3 -2 -2 -3 -3 -2 -2 -2 -3 -4 -3 -3 -3 -4 -3 -3 -3 -3 -3 -3 -3 -4 -4 -5 -6 -6 -6 -8 -9 -9
-1 -2 -2 -2 -2 -3 -3 -3 -4 -4 -4 -4 -5 -5 -4 -4 -5 -5 -4 -4 -5 -4 -4 -5 -5 -4 -3 -3 -3 -3 -3 -3 -3 -4 -4 -5 -5 -6 -6 -7 -8 -9 -10
-3 -3 -3 -3 -3 -4 -4 -4 -4 -4 -4 -4 -4 -5 -5 -5 -4 -4 -4 -4 -4 -4 -5 -5 -4 -3 -3 -3 -3 -3 -3 -3 -4 -4 -5 -5 -6 -6 -7 -9 -10 -10 -10
-4 -4 -4 -4 -4 -4 -4 -5 -5 -5 -5 -5 -5 -5 -5 -5 -5 -4 -4 -4 -5 -5 -6 -5 -4 -4 -3 -3 -3 -4 -4 -4 -4 -5 -5 -6 -6 -7 -9 -10 -10 -11 -10
-4 -4 -4 -4 -4 -5 -5 -5 -5 -5 -5 -5 -5 -5 -5 -5 -5 -5 -5 -6 -6 -5 -5 -5 -4 -4 -4 -4 -4 -4 -4 -5 -5 -5 -6 -6 -7 -8 -10 -10 -10 -11 -10
-5 -5 -5 -5 -5 -5 -5 -5 -5 -5 -6 -6 -6 -6 -6 -6 -6 -6 -6 -5 -5 -4 -4 -4 -4 -4 -4 -4 -5 -5 -5 -5 -5 -5 -6 -7 -7 -8 -9 -10 -10 -10 -10
-6 -6 -6 -6 -5 -5 -6 -6 -5 -5 -6 -6 -6 -6 -6 -6 -6 -5 -5 -5 -5 -5 -5 -4 -4 -4 -5 -5 -5 -5 -6 -6 -6 -6 -7 -7 -8 -8 -9 -10 -10 -10 -10
-6 -6 -6 -6 -6 -6 -6 -6 -6 -6 -6 -6 -6 -6 -6 -6 -5 -5 -5 -5 -5 -5 -5 -5 -5 -5 -5 -6 -6 -6 -6 -6 -6 -7 -7 -8 -9 -10 -10 -10 -10 -10 -10
Height
1456 1460 1466 1472 1479 1484 1490 1491 1497 1500 1503 1505 1507 1508 1510 1513 1514 1515 1515 1516 1516 1518 1519 1521 1522 1523 1524 1525 1527 1527 1529 1530 1530 1530 1529 1529 1529 1528 1527 1525 1524 1522 1520
1451 1454 1459 1467 1471 1478 1481 1484 1490 1493 1497 1500 1502 1504 1506 1508 1511 1511 1511 1513 1514 1514 1517 1518 1519 1521 1522 1523 1524 1525 1527 1528 1528 1527 1527 1527 1527 1526 1524 1524 1523 1520 1518
1446 1449 1453 1458 1463 1468 1473 1477 1482 1486 1490 1494 1496 1499 1502 1503 1507 1508 1508 1510 1512 1512 1514 1516 1517 1518 1520 1520 1522 1523 1524 1525 1526 1526 1525 1524 1524 1524 1523 1522 1521 1520 1518
1435 1440 1444 1448 1453 1459 1464 1470 1475 1479 1483 1487 1492 1495 1498 1498 1502 1504 1505 1506 1509 1510 1511 1514 1515 1516 1517 1518 1520 1521 1521 1523 1523 1524 1524 1522 1522 1522 1521 1520 1520 1518 1516
1429 1434 1438 1444 1448 1453 1459 1466 1470 1474 1478 1483 1487 1490 1492 1494 1497 1500 1502 1503 1506 1506 1508 1510 1512 1514 1515 1516 1516 1518 1518 1519 1520 1521 1521 1520 1519 1519 1519 1517 1516 1515 1513
1425 1429 1433 1438 1444 1449 1455 1459 1464 1468 1472 1477 1481 1483 1485 1489 1492 1494 1498 1500 1502 1504 1505 1507 1509 1511 1512 1514 1513 1515 1516 1517 1518 1519 1518 1518 1517 1516 1516 1516 1514 1512 1510
1422 1426 1431 1435 1440 1444 1449 1452 1457 1461 1466 1471 1474 1478 1480 1483 1487 1489 1492 1495 1499 1501 1503 1504 1505 1507 1508 1511 1511 1513 1513 1515 1515 1516 1516 1515 1514 1514 1514 1514 1512 1511 1509
1418 1422 1427 1431 1435 1439 1443 1446 1451 1456 1461 1464 1469 1470 1477 1477 1482 1485 1489 1491 1494 1497 1499 1501 1503 1504 1506 1508 1508 1510 1511 1512 1513 1514 1514 1513 1512 1512 1511 1511 1509 1508 1506
1415 1419 1423 1426 1429 1433 1437 1441 1447 1452 1456 1459 1463 1467 1470 1474 1477 1481 1484 1487 1490 1493 1496 1497 1499 1501 1503 1504 1506 1507 1509 1510 1511 1512 1512 1511 1510 1509 1508 1508 1507 1505 1503
1413 1415 1419 1422 1424 1428 1432 1435 1439 1446 1449 1454 1459 1463 1467 1470 1473 1476 1479 1483 1486 1489 1492 1494 1496 1498 1499 1501 1503 1505 1506 1507 1509 1509 1509 1508 1508 1507 1506 1505 1503 1501 1499
1410 1412 1415 1419 1422 1425 1428 1431 1435 1440 1444 1449 1454 1458 1462 1466 1469 1471 1475 1478 1482 1485 1487 1489 1491 1493 1496 1498 1500 1502 1503 1505 1506 1506 1506 1506 1505 1504 1503 1500 1498 1496 1495
1407 1409 1412 1415 1417 1419 1423 1427 1432 1436 1439 1445 1449 1454 1457 1460 1464 1467 1471 1475 1478 1480 1483 1485 1488 1490 1492 1494 1496 1498 1500 1500 1501 1501 1502 1502 1502 1501 1499 1497 1495 1493 1489
1405 1407 1409 1411 1413 1416 1419 1423 1426 1430 1434 1438 1443 1447 1450 1454 1458 1462 1466 1470 1473 1475 1478 1481 1483 1486 1488 1490 1492 1494 1494 1494 1495 1495 1496 1497 1497 1496 1494 1492 1491 1488 1485
1403 1404 1406 1408 1410 1412 1415 1419 1422 1425 1429 1433 1437 1440 1444 1448 1453 1457 1461 1464 1468 1471 1474 1476 1478 1481 1483 1486 1487 1488 1488 1489 1489 1490 1490 1489 1489 1488 1487 1485 1485 1483 1479
1400 1402 1404 1405 1407 1409 1412 1415 1418 1421 1424 1427 1431 1435 1439 1442 1446 1451 1455 1460 1463 1465 1469 1471 1472 1473 1477 1480 1480 1481 1482 1483 1484 1485 1484 1483 1482 1481 1479 1477 1476 1475 1472
1398 1399 1401 1403 1405 1407 1409 1412 1414 1417 1421 1424 1428 1432 1436 1440 1443 1448 1450 1454 1458 1461 1462 1465 1467 1470 1472 1473 1474 1475 1476 1477 1477 1477 1477 1476 1476 1475 1472 1470 1470 1467 1465
1396 1397 1399 1401 1403 1405 1407 1409 1411 1414 1417 1420 1423 1427 1430 1435 1438 1442 1446 1449 1453 1455 1456 1459 1462 1465 1466 1467 1468 1470 1471 1472 1473 1472 1470 1469 1468 1468 1466 1465 1464 1461 1459
1395 1396 1398 1400 1402 1403 1405 1406 1409 1411 1414 1417 1419 1422 1425 1429 1432 1436 1441 1444 1447 1447 1450 1453 1455 1459 1460 1461 1462 1463 1464 1465 1464 1464 1464 1463 1462 1461 1460 1459 1459 1456 1454
1394 1395 1397 1398 1399 1401 1402 1404 1406 1408 1410 1413 1416 1418 1421 1424 1428 1432 1435 1437 1440 1442 1444 1446 1449 1452 1454 1456 1456 1457 1457 1457 1458 1458 1457 1457 1455 1453 1452 1451 1450 1450 1448
1395 1395 1396 1397 1398 1399 1401 1402 1403 1404 1406 1408 1411 1414 1417 1419 1422 1425 1428 1431 1433 1435 1437 1440 1443 1445 1446 1448 1449 1450 1450 1450 1450 1449 1449 1449 1448 1447 1446 1445 1443 1442 1440
1397 1397 1397 1398 1398 1399 1400 1400 1402 1403 1404 1405 1407 1410 1413 1415 1418 1420 1422 1424 1426 1427 1428 1431 1435 1437 1439 1440 1441 1442 1442 1443 1442 1441 1440 1440 1440 1441 1441 1438 1437 1434 1433
1400 1399 1398 1398 1399 1399 1399 1400 1401 1401 1402 1403 1405 1407 1409 1411 1413 1414 1415 1417 1418 1419 1422 1426 1428 1429 1430 1431 1433 1434 1435 1435 1434 1434 1432 1432 1433 1435 1433 1432 1430 1428 1425
1403 1401 1400 1399 1398 1398 1398 1398 1398 1398 1399 1400 1401 1403 1404 1405 1406 1407 1408 1409 1412 1415 1417 1419 1420 1421 1423 1424 1425 1426 1426 1426 1426 1425 1425 1426 1427 1427 1426 1424 1422 1420 1418
1404 1402 1400 1399 1398 1398 1398 1397 1397 1396 1396 1396 1397 1398 1399 1400 1401 1403 1405 1406 1408 1409 1410 1411 1412 1414 1414 1416 1416 1418 1418 1418 1418 1418 1418 1419 1419 1419 1418 1417 1415 1413 1411
1400 1399 1398 1397 1395 1394 1394 1394 1393 1393 1393 1393 1394 1395 1396 1397 1397 1397 1399 1400 1400 1402 1402 1403 1403 1405 1405 1407 1408 1409 1410 1411 1410 1411 1412 1413 1412 1412 1411 1409 1408 1406 1405
1395 1394 1392 1392 1391 1390 1388 1387 1387 1387 1387 1386 1386 1387 1388 1389 1388 1389 1390 1390 1391 1391 1392 1393 1395 1396 1398 1399 1400 1401 1402 1403 1403 1404 1405 1405 1405 1404 1403 1402 1401 1400 1398
Wind_Speed
54 55 52 43 43 40 38 31 31 28 26 24 22 21 20 20 19 18 16 16 15 14 14 12 12 12 11 10 8 6 5 7 7 8 10 9 7 7 7 8 9 9 10
51 50 49 44 43 43 40 36 34 31 28 25 23 23 22 21 20 19 18 16 16 14 14 13 13 13 12 12 12 10 9 8 8 6 6 4 6 6 7 7 8 9 9
41 44 44 44 44 44 43 39 36 33 30 27 26 26 24 21 22 20 18 17 15 14 14 13 13 13 12 12 12 12 11 11 10 7 4 3 3 3 5 6 7 8 10
47 43 41 43 44 45 43 41 37 35 32 29 28 26 24 22 22 21 19 17 16 15 14 14 13 13 12 12 12 11 11 11 8 6 4 2 2 3 6 7 7 10 9
37 38 39 41 42 44 43 40 37 35 32 29 29 27 25 25 23 21 19 18 17 16 15 15 14 13 12 12 11 11 10 10 9 8 5 3 2 3 6 9 12 13 11
36 36 35 34 38 40 39 39 37 35 33 32 30 28 27 26 23 21 20 19 18 17 16 15 15 14 14 13 12 11 11 9 9 7 6 3 1 3 6 9 12 16 17
24 27 29 28 32 36 38 37 37 36 35 33 29 28 29 25 24 23 22 20 19 18 17 16 16 16 14 14 12 12 11 10 9 8 5 3 1 4 7 9 12 14 17
23 25 27 27 31 33 35 36 36 36 34 30 30 29 30 27 26 24 23 21 20 19 18 17 16 15 15 14 13 12 12 10 9 7 5 2 3 6 9 12 14 16 18
22 24 24 26 29 31 33 34 34 33 33 31 32 30 30 28 27 26 24 23 22 21 20 19 17 17 16 15 14 13 12 11 10 7 4 4 6 8 11 14 15 18 21
20 20 22 25 29 31 33 34 34 33 32 32 31 31 30 28 27 26 24 24 23 22 21 20 19 17 17 16 15 14 13 12 10 8 6 6 7 10 12 13 15 18 20
12 16 19 22 25 27 30 32 32 33 31 30 33 32 30 29 27 27 26 26 24 23 22 22 21 19 18 17 16 14 13 13 11 10 8 8 9 11 13 14 16 18 20
7 12 15 18 21 24 26 29 30 29 31 33 33 32 31 30 29 28 27 26 23 23 22 21 19 19 19 18 16 15 15 14 12 11 10 10 12 13 15 16 18 20 22
10 11 12 15 18 21 23 26 28 30 31 33 34 34 33 32 31 29 27 26 25 24 22 20 20 20 19 18 18 19 17 16 14 13 12 13 15 17 18 19 20 22 24
13 12 12 14 17 20 22 25 27 30 32 34 35 35 35 33 32 31 30 27 25 25 24 23 22 21 19 21 22 21 19 17 16 16 15 16 17 19 20 23 24 25 27
12 12 13 14 16 18 21 23 25 28 30 33 34 35 35 34 33 32 29 24 30 29 26 25 25 24 24 25 25 22 20 19 19 17 18 18 19 21 22 23 25 26 26
10 11 12 13 14 16 18 21 23 25 26 28 29 30 29 30 30 30 27 27 29 26 27 27 26 23 22 26 25 22 21 21 20 19 19 20 21 22 23 23 24 24 25
5 6 8 10 13 16 17 18 21 23 22 23 24 24 24 24 24 26 26 25 25 25 27 24 23 23 23 26 23 23 22 20 19 20 21 21 21 23 23 23 22 21 25
6 5 6 8 11 14 16 17 19 21 22 23 23 23 21 19 20 21 23 25 26 28 25 20 22 22 25 24 25 24 22 21 20 21 22 21 21 22 21 22 21 23 27
5 5 6 6 7 8 10 12 14 17 18 18 19 19 18 18 20 22 25 27 27 25 23 24 23 23 25 27 25 23 21 20 22 23 23 22 20 20 21 21 22 24 27
5 4 2 3 4 5 6 7 9 11 14 15 17 22 23 20 23 28 30 28 28 26 24 23 26 25 28 24 23 22 22 23 23 23 22 22 21 21 21 23 23 26 29
8 6 5 4 4 5 6 7 8 9 12 15 18 16 15 21 25 27 29 31 33 34 28 23 25 24 23 23 24 24 24 23 23 22 22 22 21 21 21 22 24 26 28
10 7 4 3 3 4 4 6 7 9 10 11 13 17 22 27 30 30 29 31 28 22 18 21 24 22 23 24 24 23 24 24 23 22 22 21 21 21 22 24 25 26 26
8 8 8 8 7 6 6 7 8 10 13 16 19 22 24 25 27 26 22 16 13 18 20 21 24 27 25 23 25 25 24 23 22 22 21 22 22 23 23 24 25 24 25
10 9 9 9 9 10 10 9 8 8 8 9 9 10 11 11 10 12 15 17 20 22 22 20 20 23 27 27 25 24 23 22 23 21 21 21 21 21 21 22 23 24 22
14 14 14 14 13 14 15 16 16 17 18 18 18 19 20 22 24 23 22 22 22 24 25 27 30 29 26 25 24 24 23 22 22 19 18 19 20 21 21 22 22 22 21
17 17 18 18 18 17 17 17 17 18 19 19 20 21 23 24 24 23 23 24 25 25 25 25 25 25 24 24 24 23 23 21 19 19 18 19 20 21 23 24 22 21 21
Wind_Direction
216 221 222 219 221 226 229 233 236 238 238 236 233 233 236 238 237 234 230 231 228 227 228 225 226 226 228 233 239 239 239 221 220 242 267 294 309 319 330 341 346 341 339
225 227 223 221 223 225 229 231 233 235 235 236 235 237 236 235 235 232 229 227 227 227 227 225 225 225 226 231 230 230 246 241 243 251 269 285 306 323 341 351 0 352 352
231 236 232 227 225 226 229 230 231 231 232 234 234 236 235 232 231 228 225 224 227 223 225 226 226 225 226 226 227 230 236 244 253 255 259 278 309 335 338 350 354 359 352
233 237 232 227 226 225 228 228 228 229 229 231 234 234 233 228 226 225 224 221 220 220 221 225 227 229 231 228 229 231 230 234 238 239 242 242 284 334 343 344 357 1 5
240 237 232 229 227 225 226 225 227 227 228 230 231 229 226 225 224 222 221 221 221 220 221 224 227 229 230 228 224 225 224 226 225 229 229 233 292 340 352 357 356 357 356
238 235 233 233 233 227 224 224 225 225 225 226 225 225 225 224 221 219 220 220 220 222 224 225 225 224 223 223 220 219 221 223 222 219 217 222 298 353 351 347 347 348 351
238 237 237 236 238 232 226 223 224 223 222 222 223 226 223 221 219 216 217 217 221 223 224 226 225 222 219 221 219 218 215 214 215 215 215 209 268 325 333 338 336 339 336
236 237 237 237 237 232 228 225 224 222 223 224 225 225 224 218 216 216 216 217 220 223 225 226 226 225 221 219 216 215 213 211 211 209 217 254 306 315 318 326 329 327 330
236 237 234 233 236 233 231 228 225 221 224 225 227 225 221 217 216 216 217 219 220 223 224 224 223 221 220 217 215 213 214 210 209 218 236 271 296 307 312 319 321 322 326
241 242 240 239 238 236 233 227 227 222 225 228 227 225 223 219 218 218 219 221 222 222 223 223 223 220 220 219 217 216 214 214 217 228 248 273 286 295 303 311 316 321 323
246 245 242 242 244 240 235 229 224 222 228 228 228 223 220 220 220 221 222 224 225 225 225 224 222 219 219 219 219 218 217 220 226 238 252 270 287 297 302 306 311 314 315
239 241 240 240 240 238 235 232 231 230 228 225 223 222 222 220 220 222 224 225 225 226 228 226 224 222 220 221 223 224 227 231 236 249 266 282 289 293 297 301 306 310 312
249 247 248 244 239 234 231 229 228 228 227 224 223 223 223 221 221 222 223 224 222 224 226 226 223 221 220 224 231 231 233 238 244 254 267 280 289 295 298 302 305 308 309
251 252 254 248 245 240 235 234 234 230 228 227 226 226 226 225 224 222 220 219 223 226 223 219 218 221 225 240 233 234 239 244 249 256 267 276 285 293 298 303 307 310 307
259 253 255 255 251 246 243 242 240 240 239 237 234 233 231 230 231 229 224 233 234 228 219 216 215 216 230 240 236 238 242 245 250 260 267 275 287 291 298 303 308 310 308
267 258 260 261 261 257 250 247 243 243 245 245 245 246 246 244 243 234 229 244 230 224 219 222 223 234 247 245 242 243 243 246 251 258 265 278 284 291 295 302 304 306 307
304 282 277 276 267 264 262 255 249 248 244 242 245 248 247 246 246 244 237 228 224 220 224 227 235 249 254 247 245 245 246 250 256 258 270 276 285 289 294 297 301 304 307
317 297 282 277 275 276 272 267 261 255 250 246 242 240 240 235 229 232 228 218 215 220 228 235 253 256 247 245 247 247 248 249 253 265 271 278 284 289 290 293 297 304 303
305 297 291 289 281 274 271 267 265 260 255 250 244 240 226 216 223 223 218 223 227 225 245 271 259 242 249 246 251 248 249 257 264 269 273 277 281 279 281 284 291 295 298
25 13 343 306 297 286 271 260 255 250 244 235 228 226 238 229 214 219 223 223 228 241 254 245 245 246 252 250 250 251 254 259 267 270 272 274 273 274 278 285 289 293 293
36 27 13 358 330 310 306 299 288 276 264 252 246 239 229 229 227 230 233 238 247 251 248 238 251 255 251 251 250 251 257 264 267 268 270 269 269 271 279 283 287 292 296
31 26 22 3 334 314 299 289 289 286 279 270 259 248 242 243 244 241 245 259 265 245 232 245 253 250 251 251 252 255 261 268 269 272 265 262 265 272 281 284 289 294 301
2 15 26 25 10 352 328 311 297 283 273 267 262 255 249 247 250 256 252 233 241 251 249 246 249 253 254 255 255 258 265 269 270 267 256 256 263 273 280 285 292 295 299
319 314 310 305 301 296 297 300 304 300 288 277 270 266 258 244 242 257 261 256 253 256 254 254 259 259 256 253 253 261 267 268 270 262 252 257 269 278 284 290 290 294 295
300 301 298 293 284 280 279 277 274 270 267 266 265 264 264 264 265 263 257 255 257 256 254 253 255 256 252 251 253 261 267 265 265 251 252 264 274 280 288 292 293 292 292
284 282 283 284 285 284 279 275 274 272 270 266 264 265 265 264 263 262 261 260 259 259 259 256 253 250 247 248 254 260 263 265 255 247 257 270 278 283 289 292 289 286 290